This demonstration page uses our WeatherBlox Daily Observations layout. Learn more.

Left ArrowRight Arrow

38.20091, -84.87328

Hourly Observations for January 16, 2020

Temp ( °F °C ) Dew Point ( °F °C ) Humidity (%) Winds ( mph kmh ) Pressure ( in mb ) Visibility ( mi km ) Precip ( " mm )
12:12 am 00:12 Mostly Cloudy 50 10 45 7.2 83 83 W 6 9 30.20 1023 10 16 0.00 0.00
12:34 am 00:34 Mostly Clear 49 9.4 45 7.2 86 86 W 6 9 30.21 1023 10 16 0.00 0.00
12:53 am 00:53 Clear 49 9.4 44 6.7 83 83 WNW 8 13 30.21 1023 10 16 0.00 0.00
1:41 am 01:41 Mostly Cloudy 47 8.3 44 6.7 90 90 WNW 5 7 30.25 1024 10 16 0.00 0.00
1:49 am 01:49 Partly Cloudy 46 8 43 6 87 87 WNW 5 7 30.25 1024 10 16 0.00 0.00
1:53 am 01:53 Partly Cloudy 47 8.3 43 6.1 86 86 W 5 7 30.24 1024 10 16 0.00 0.00
2:30 am 02:30 Mostly Cloudy 46 7.8 43 6.1 89 89 W 6 9 30.28 1025 10 16 0.00 0.00
2:53 am 02:53 Mostly Cloudy 47 8.3 43 6.1 86 86 WNW 8 13 30.27 1025 10 16 0.00 0.00
3:53 am 03:53 Partly Cloudy 46 7.8 39 3.9 77 77 NW 7 11 30.29 1026 10 16 0.00 0.00
4:26 am 04:26 Mostly Cloudy 46 7.8 40 4.4 79 79 NW 6 9 30.35 1028 10 16 0.00 0.00
4:53 am 04:53 Cloudy 45 7.2 37 2.8 74 74 NNW 15 24 30.33 1027 10 16 0.00 0.00
5:46 am 05:46 Mostly Clear 42 5.6 35 1.7 76 76 NNW 9 15 30.39 1029 10 16 0.00 0.00
5:53 am 05:53 Mostly Clear 41 5 35 1.7 79 79 NNW 8 13 30.37 1029 10 16 0.00 0.00
6:53 am 06:53 Partly Cloudy 40 4.4 34 1.1 79 79 NW 9 15 30.42 1030 10 16 0.00 0.00
7:53 am 07:53 Mostly Cloudy 38 3.3 32 0 79 79 NW 12 19 30.47 1032 10 16 0.00 0.00
8:53 am 08:53 Cloudy 38 3.3 30 -1.1 73 73 NNW 13 20 30.50 1033 10 16 0.00 0.00
9:53 am 09:53 Mostly Sunny 39 3.9 30 -1.1 70 70 NW 9 15 30.52 1034 10 16 0.00 0.00
10:53 am 10:53 Sunny 41 5 30 -1.1 65 65 NW 8 13 30.54 1034 10 16 0.00 0.00
11:53 am 11:53 Sunny 42 5.6 30 -1.1 62 62 WNW 14 22 30.55 1035 10 16 0.00 0.00
12:53 pm 12:53 Sunny 42 5.6 27 -2.8 55 55 WNW 13 20 30.54 1034 10 16 0.00 0.00
1:53 pm 13:53 Sunny 43 6.1 24 -4.4 47 47 WNW 13 20 30.53 1034 10 16 0.00 0.00
2:53 pm 14:53 Sunny 43 6.1 23 -5 45 45 NW 15 24 30.53 1034 10 16 0.00 0.00
3:53 pm 15:53 Sunny 44 6.7 18 -7.8 35 35 NNW 15 24 30.55 1035 10 16 0.00 0.00
4:53 pm 16:53 Sunny 42 5.6 14 -10 32 32 NNW 9 15 30.58 1036 10 16 0.00 0.00
5:53 pm 17:53 Clear 38 3.3 16 -8.9 41 41 NNW 6 9 30.60 1036 10 16 0.00 0.00
6:53 pm 18:53 Clear 36 2.2 15 -9.4 42 42 NNW 10 17 30.63 1037 10 16 0.00 0.00
7:53 pm 19:53 Clear 34 1.1 17 -8.3 50 50 NNW 6 9 30.65 1038 10 16 0.00 0.00
8:53 pm 20:53 Clear 34 1.1 16 -8.9 48 48 N 8 13 30.66 1038 10 16 0.00 0.00
9:53 pm 21:53 Clear 31 -0.6 18 -7.8 59 59 VRB 6 9 30.68 1039 10 16 0.00 0.00
10:53 pm 22:53 Clear 30 -1.1 19 -7.2 64 64 NNW 7 11 30.70 1040 10 16 0.00 0.00
11:53 pm 23:53 Clear 30 -1.1 19 -7.2 64 64 N 7 11 30.70 1040 10 16 0.00 0.00

Powered by AerisWeather